Tracking 30995 objects as of 5-Jul-2025
HD Live streaming from Space Station
objects crossing your sky now

STARLINK-30439

Track STARLINK-30439 now!
10-day predictions
STARLINK-30439 is classified as:


NORAD ID: 57867
Int'l Code: 2023-144D
Perigee: 565.3 km
Apogee: 567.1 km
Inclination: 43.0 °
Period: 95.8 minutes
Semi major axis: 6937 km
RCS: Unknown
Launch date: September 16, 2023
Source: United States (US)
Launch site: AIR FORCE EASTERN TEST RANGE (AFETR)
Your satellite tracking list
Your tracking list is empty




NASA's NSSDC Master Catalog

Two Line Element Set (TLE):
1 57867U 23144D   25185.70730367  .00000460  00000-0  49151-4 0  9995
2 57867  43.0024 195.2886 0001342 283.9505  76.1188 15.02535932100310
Source of the keplerian elements: AFSPC